"Pseudo-MPEC" for P20Ondn

Created 2019 Jun 15 19:09:53 UT using Find_Orb

Click here for an explanation of pseudo-MPECs

 
 Astrometry: 
     P20Ondn  C2019 05 30,`+$nuK;vNEEjFydiYBEg5TF\Hqk7W+B\+kWaL8DK]5L\SoO;]dIF52
     P20Ondn  C2019 05 30^rUFc3Q,I7QxG-6kXM^03TAstrometrybo=!'j1'TxX:Gok'H8h8F52
     P20Ondn  C2019 05 30]Gfd_PQ9V:.M@'O!Kredacted;`(Y8;s_df20U%nVk2;ucUQ#=$xF52
     P20Ondn  C2019 05 30x-SJG6)_QWD;ueN,tSPx2EsOT$-r\+pj8tkN$Q%5OA0nIphVp.\'F52
     P20Ondn KC2019 06 04fr_sjA$;e5WkmbJ(kkm`ncNJ4GXJe967xclick/\tgw_^f)4XSpJJ04
     P20Ondn KC2019 06 04yc0GM8r;9*eXxVpPeRJ-)0koN)_'cZ=M(DeT_Y8%76[-g97-B!R8J04
     P20Ondn KC2019 06 04(uAbO*vG1$kP2+/K0GaEhere.(yH@aju9\#t2x6a\2bmkTD#_SNI711
     P20Ondn KC2019 06 04TjHcr!1lbUhV8E*$D@?ZR(forNC\explanationLGu%OxZ?Fw8G.711
     P20Ondn SC2019 06 04^d=L@/LJ3JjS*v[Xt=^AldJjxjjO\k7@UTGOdsywCCPMte`n\DiN711
     P20Ondn  C2019 06 07b9:).ieZ,/5S_S8PI\[P0j$]im1+`Pj8C/l$o9;l(Sv+i16y2Z#oF51
     P20Ondn  C2019 06 07#Jc10cU#,od4KWj@#MtX=eH=Q]tF`E'#0kf?nM]7KCIdLi8!/FJLF51
     P20Ondn  C2019 06 07waGD!F%%0JEO?rf7d843TR9wj@xfcc'a?'@D7ki@d-Uyim-B`*f(F51
     P20Ondn  C2019 06 07@F_!d(%A0e!E/v/K]+\-Ri)8MJsUj?nk]qN=88=$mbgiK8LiCbPuF51

Station data:
(711) McDonald Observatory, Fort Davis  (N30.671481 W104.021500)  US/Texas.
   0.76-m f/3.0 reflector.
(F51) Pan-STARRS 1, Haleakala  (N20.707235 W156.255910)  US/Hawaii.
   Observers N. Primak, A. Schultz, S. Watters, J. Thiel, T. Goggia. Measurer
   PS1 Science Consortium. 1.8-m Ritchey-Chrétien + CCD.
(F52) Pan-STARRS 2, Haleakala  (N20.707384 W156.255910)  US/Hawaii. 1.8-m
   Ritchey-Chrétien + CCD.
(J04) ESA Optical Ground Station, Tenerife  (N28.300924 W16.511830)  Canary
   Islands (Spain).  Observer D. Abreu. Measurers M. Micheli, D. Koschny, E.
   Schwab, M. Busch, A. Knöfel. 1.0-m f/4.4 reflector + CCD.

Orbital elements:  P20Ondn
   Perihelion 2016 Apr 15.109087 +/- 1727 TT =  2:37:05 (JD 2457493.609087)
Epoch 2019 Jun  7.0 TT = JDT 2458641.5   Ju: 0.2425           AutoNEOCP
M  94.14098790 +/- 140              (J2000 ecliptic)
n   0.08201213 +/- 0.00305          Peri.    6.72482 +/- 170
a   5.24667254 +/- 0.13             Node   220.54791 +/- 0.6
e   0.0125634 +/- 0.0344            Incl.   35.10458 +/- 0.06
P  12.02                   H 13.9   G  0.15   U  8.9  
q 5.18075629 +/- 0.158    Q 5.31258880 +/- 0.288
From 13 observations 2019 May 30-June 7; mean residual 0".28
Residuals in arcseconds: 
190530 F52  .14+  .09-    190604 J04  .10-  .04-    190607 F51  .10+  .01-    
190530 F52  .06+  .03-    190604 711  .09+  .36-    190607 F51  .02+  .18+    
190530 F52  .04-  .06+    190604 711  .82+  .22+    190607 F51  .06-  .15-    
190530 F52  .15-  .09+    190604 711  .60-  .70+    
190604 J04  .16-  .42-    190607 F51  .09-  .06-    

Ephemerides (geocentric):
Date (UTC) HH   RA              Dec         delta   r     elong  mag " sig PA
---- -- -- --  -------------   -----------  ------ ------ -----  --- ---- ---
2019 06 15 19  21 46 21.464   +25 38 57.14  4.9500 5.2531 101.8 21.7 3.07 100
2019 06 15 20  21 46 21.392   +25 39 11.16  4.9495 5.2531 101.9 21.7 3.10 100
2019 06 15 21  21 46 21.318   +25 39 25.17  4.9490 5.2531 101.9 21.7 3.12 100
2019 06 15 22  21 46 21.243   +25 39 39.17  4.9485 5.2531 101.9 21.7 3.14 100
2019 06 15 23  21 46 21.167   +25 39 53.16  4.9480 5.2531 101.9 21.7 3.17 100
2019 06 16 00  21 46 21.090   +25 40 07.15  4.9476 5.2531 102.0 21.7 3.19 100
2019 06 16 01  21 46 21.011   +25 40 21.12  4.9471 5.2531 102.0 21.7 3.21 100
2019 06 16 02  21 46 20.931   +25 40 35.09  4.9466 5.2531 102.0 21.7 3.24 100
2019 06 16 03  21 46 20.850   +25 40 49.05  4.9461 5.2531 102.1 21.7 3.26 100
2019 06 16 04  21 46 20.768   +25 41 03.00  4.9456 5.2531 102.1 21.7 3.28 100
2019 06 16 05  21 46 20.684   +25 41 16.95  4.9451 5.2531 102.1 21.7 3.31 100
2019 06 16 06  21 46 20.599   +25 41 30.88  4.9446 5.2531 102.1 21.7 3.33 100
2019 06 16 07  21 46 20.513   +25 41 44.81  4.9441 5.2531 102.2 21.7 3.36 100
2019 06 16 08  21 46 20.425   +25 41 58.73  4.9436 5.2531 102.2 21.7 3.38 100
2019 06 16 09  21 46 20.337   +25 42 12.64  4.9431 5.2531 102.2 21.7 3.41 100
2019 06 16 10  21 46 20.247   +25 42 26.54  4.9426 5.2531 102.3 21.7 3.43 100
2019 06 16 11  21 46 20.156   +25 42 40.43  4.9422 5.2531 102.3 21.7 3.45 100
2019 06 16 12  21 46 20.063   +25 42 54.32  4.9417 5.2531 102.3 21.7 3.48 100
2019 06 16 13  21 46 19.969   +25 43 08.19  4.9412 5.2531 102.4 21.7 3.50 100
2019 06 16 14  21 46 19.874   +25 43 22.06  4.9407 5.2532 102.4 21.7 3.53 100
2019 06 16 15  21 46 19.778   +25 43 35.92  4.9402 5.2532 102.4 21.7 3.55 100
2019 06 16 16  21 46 19.681   +25 43 49.77  4.9397 5.2532 102.4 21.7 3.58 100
2019 06 16 17  21 46 19.582   +25 44 03.61  4.9392 5.2532 102.5 21.7 3.60 100
2019 06 16 18  21 46 19.482   +25 44 17.45  4.9387 5.2532 102.5 21.7 3.63 100
2019 06 16 19  21 46 19.381   +25 44 31.27  4.9382 5.2532 102.5 21.7 3.65 100
2019 06 16 20  21 46 19.278   +25 44 45.09  4.9377 5.2532 102.6 21.7 3.68 100
2019 06 16 21  21 46 19.175   +25 44 58.90  4.9373 5.2532 102.6 21.7 3.70  99
2019 06 16 22  21 46 19.069   +25 45 12.70  4.9368 5.2532 102.6 21.7 3.73  99
2019 06 16 23  21 46 18.963   +25 45 26.49  4.9363 5.2532 102.7 21.7 3.76  99
2019 06 17 00  21 46 18.856   +25 45 40.28  4.9358 5.2532 102.7 21.7 3.78  99
2019 06 17 01  21 46 18.747   +25 45 54.05  4.9353 5.2532 102.7 21.7 3.81  99
2019 06 17 02  21 46 18.637   +25 46 07.82  4.9348 5.2532 102.7 21.7 3.83  99
2019 06 17 03  21 46 18.526   +25 46 21.58  4.9343 5.2532 102.8 21.7 3.86  99
2019 06 17 04  21 46 18.413   +25 46 35.33  4.9338 5.2532 102.8 21.7 3.89  99
2019 06 17 05  21 46 18.299   +25 46 49.07  4.9334 5.2532 102.8 21.7 3.91  99
2019 06 17 06  21 46 18.184   +25 47 02.80  4.9329 5.2532 102.9 21.7 3.94  99
2019 06 17 07  21 46 18.068   +25 47 16.52  4.9324 5.2532 102.9 21.7 3.96  99
2019 06 17 08  21 46 17.950   +25 47 30.24  4.9319 5.2532 102.9 21.7 3.99  99
2019 06 17 09  21 46 17.831   +25 47 43.95  4.9314 5.2532 103.0 21.7 4.02  99
2019 06 17 10  21 46 17.711   +25 47 57.64  4.9309 5.2532 103.0 21.7 4.04  99
2019 06 17 11  21 46 17.590   +25 48 11.33  4.9304 5.2532 103.0 21.7 4.07  99
2019 06 17 12  21 46 17.467   +25 48 25.01  4.9299 5.2532 103.0 21.7 4.10  99
2019 06 17 13  21 46 17.343   +25 48 38.69  4.9295 5.2532 103.1 21.7 4.12  99
2019 06 17 14  21 46 17.218   +25 48 52.35  4.9290 5.2532 103.1 21.7 4.15  99
2019 06 17 15  21 46 17.092   +25 49 06.01  4.9285 5.2532 103.1 21.7 4.18  99
2019 06 17 16  21 46 16.964   +25 49 19.65  4.9280 5.2533 103.2 21.7 4.21  99
2019 06 17 17  21 46 16.835   +25 49 33.29  4.9275 5.2533 103.2 21.7 4.23  99
2019 06 17 18  21 46 16.705   +25 49 46.92  4.9270 5.2533 103.2 21.7 4.26  99